Regional Weather Roundup
Issued by NWS

Home | Current Version | Previous Version | Text Only | Print | Product List | Glossary On
Versions: 1 2 3 4 5 6 7 8 9 10 11 12 13 14 15 16 17 18 19 20 21 22 23 24 25 26 27 28 29 30 31 32 33 34 35 36 37 38 39 40 41 42 43 44 45 46 47
000
ASUS45 KPSR 290010
RWRAZ

ARIZONA HOURLY REGIONAL WEATHER ROUNDUP
NATIONAL WEATHER SERVICE PHOENIX AZ
500 PM MST WED JUN 28 2017

NOTE: FAIR INDICATES FEW OR NO CLOUDS BELOW 12,000 FEET WITH NO
SIGNIFICANT WEATHER AND/OR OBSTRUCTIONS TO VISIBILITY.

AZZ001>003-036-290100-
NORTHWEST ARIZONA

CITY           SKY/WX    TMP DP  RH WIND       PRES   REMARKS
BULLHEAD CITY  SUNNY    109  14   3 S23G30    29.60F HX 100
KINGMAN        SUNNY     98  18   5 SW21G29   29.86F
6HR MIN TEMP:  94; 6HR MAX TEMP:  99;

$$

AZZ004>008-015-016-018-290100-
NORTH CENTRAL ARIZONA

CITY           SKY/WX    TMP DP  RH WIND       PRES   REMARKS
GRAND CANYON   SUNNY     86   1   4 W17G25    30.07F
6HR MIN TEMP:  82; 6HR MAX TEMP:  89;

PRESCOTT       SUNNY     89  20   8 SW15G29   30.00F
6HR MIN TEMP:  85; 6HR MAX TEMP:  91;

FLAGSTAFF      SUNNY     82  26  13 SW22G31   30.12F
6HR MIN TEMP:  75; 6HR MAX TEMP:  82;

PAYSON         SUNNY     90  23   9 SW10G20   30.05F
$$

AZZ009>014-017-290100-
NORTHEAST ARIZONA

CITY           SKY/WX    TMP DP  RH WIND       PRES   REMARKS
WINSLOW        SUNNY     94  16   6 SW17G30   29.94F
6HR MIN TEMP:  93; 6HR MAX TEMP:  98;

SAINT JOHNS    SUNNY     91  16   6 W15G25    30.00F
6HR MIN TEMP:  87; 6HR MAX TEMP:  94;

WINDOW ROCK    SUNNY     88  12   6 W22G33    30.06F
6HR MIN TEMP:  83; 6HR MAX TEMP:  90;

SHOW LOW       SUNNY     82  21  10 SW20G26   30.10F
$$

AZZ540-542>544-546-548-290100-
GREATER PHOENIX AREA

CITY           SKY/WX    TMP DP  RH WIND       PRES   REMARKS
PHOENIX        SUNNY    108  38   9 SW12      29.67F HX 102
6HR MIN TEMP:  97; 6HR MAX TEMP: 108;

BUCKEYE        SUNNY    106  32   8 W8        29.68F
GLENDALE       SUNNY    108  32   7 S12       29.70F HX 100
LUKE AFB       SUNNY    106  37   9 SW7G18    29.68F HX 100
6HR MIN TEMP:  97; 6HR MAX TEMP: 107;

DEER VALLEY    SUNNY    104  31   8 SW15G23   29.71F
6HR MIN TEMP:  95; 6HR MAX TEMP: 106;

SCOTTSDALE     SUNNY    106  39  10 W10G16    29.73F HX 100
6HR MIN TEMP:  96; 6HR MAX TEMP: 106;

MESA-FALCON    SUNNY    104  43  12 W9        29.72F
MESA-GATEWAY   SUNNY    104  43  12 W10       29.72F
CHANDLER       SUNNY    106  39  10 S9        29.69F HX 100
$$

AZZ539-553-290100-
SOUTHWEST MARICOPA COUNTY AND PINAL COUNTY

CITY           SKY/WX    TMP DP  RH WIND       PRES   REMARKS
CASA GRANDE    SUNNY    105  44  12 SW8       29.72F HX 100
6HR MIN TEMP:  97; 6HR MAX TEMP: 107;

GILA BEND      SUNNY    107  42  10 S12       29.67F HX 102
6HR MIN TEMP: 100; 6HR MAX TEMP: 109;

$$

AZZ503-504-507>509-290100-
SOUTHEAST ARIZONA

CITY           SKY/WX    TMP DP  RH WIND       PRES   REMARKS
TUCSON         SUNNY    104  38  10 W12G21    29.83F
6HR MIN TEMP:  97; 6HR MAX TEMP: 106;

DAVIS-MONTHAN  SUNNY    103  36  10 W8G22     29.82F
6HR MIN TEMP:  96; 6HR MAX TEMP: 104;

RYAN FIELD     SUNNY    104  37  10 W9G21     29.81F
NOGALES        MOSUNNY   94  43  17 W12G24    29.95F
6HR MIN TEMP:  92; 6HR MAX TEMP: 101;

SIERRA VISTA   MOSUNNY   93  37  14 SW20      30.02F
6HR MIN TEMP:  90; 6HR MAX TEMP:  97;

DOUGLAS        SUNNY     96  35  11 W14G25    29.94F
6HR MIN TEMP:  91; 6HR MAX TEMP: 101;

SAFFORD        SUNNY    103  33   9 NW16G28   29.80F
6HR MIN TEMP:  95; 6HR MAX TEMP: 105;

$$

AZZ532-290100-
SOUTHWEST ARIZONA

CITY           SKY/WX    TMP DP  RH WIND       PRES   REMARKS
YUMA           SUNNY    108  30   6 W8        29.63F HX 100
6HR MIN TEMP:  97; 6HR MAX TEMP: 109;

$$

CAZ041-043-047-048-061-525>527-560>570-290100-
SOUTHERN CALIFORNIA

CITY           SKY/WX    TMP DP  RH WIND       PRES   REMARKS
DOWNTOWN L.A.    N/A     76  60  57 VRB5      29.84F
6HR MIN TEMP:  75; 6HR MAX TEMP:  80;

L.A. AIRPORT   MOSUNNY   69  60  73 W13       29.86F
6HR MIN TEMP:  69; 6HR MAX TEMP:  72;

SAN DIEGO      PTSUNNY   66  58  75 S12       29.91S
6HR MIN TEMP:  66; 6HR MAX TEMP:  71;

BURBANK        SUNNY     81  53  37 S12       29.84S
6HR MIN TEMP:  76; 6HR MAX TEMP:  84;

ONTARIO        MOSUNNY   87  38  17 W16G24    29.83S
6HR MIN TEMP:  82; 6HR MAX TEMP:  92;

RIVERSIDE      SUNNY     85  57  38 W17G23    29.82S
6HR MIN TEMP:  82; 6HR MAX TEMP:  93;

PALM SPRINGS   SUNNY    109  22   4 NW14G21   29.65F HX 100
6HR MIN TEMP:  97; 6HR MAX TEMP: 111;

EL CENTRO NAS  SUNNY    109  14   3 SW25G32   29.63F HX 100
6HR MIN TEMP: 100; 6HR MAX TEMP: 113;

IMPERIAL       CLOUDY   108  37   9 W22G28    29.60F HX 101
6HR MIN TEMP: 100; 6HR MAX TEMP: 112;

BLYTHE         MOSUNNY  110  15   3 S13       29.62F HX 100
6HR MIN TEMP:  98; 6HR MAX TEMP: 110;

NEEDLES        MOSUNNY  110 -13   1 SW10G25   29.64F
6HR MIN TEMP: 104; 6HR MAX TEMP: 112;

$$

NVZ020-UTZ003-290100-
SOUTHERN NEVADA-UTAH

CITY           SKY/WX    TMP DP  RH WIND       PRES   REMARKS
LAS VEGAS      SUNNY    105   3   2 W17G26    29.68F
6HR MIN TEMP:  96; 6HR MAX TEMP: 107;

SALT LAKE CITY MOSUNNY   90  29  11 NW14G22   29.80F
6HR MIN TEMP:  86; 6HR MAX TEMP:  91;

$$

NMZ009-TXZ055-290100-
NEW MEXICO-WEST TEXAS

CITY           SKY/WX    TMP DP  RH WIND       PRES   REMARKS
ALBUQUERQUE    SUNNY     94   5   3 W16       29.92F
6HR MIN TEMP:  85; 6HR MAX TEMP:  95;

EL PASO        MOSUNNY  101  27   7 W18G24    29.86F
6HR MIN TEMP:  95; 6HR MAX TEMP: 102;

$$


........................KEY........................
SKY/WX - SKY CONDITION/WEATHER
TMP    - TEMPERATURE IN FAHRENHEIT
DP     - DEW POINT IN FAHRENHEIT
RH     - RELATIVE HUMIDITY IN PERCENT
WIND   - DIRECTION AND SPEED IN MILES PER HOUR (MPH)
VRB    - VARIABLE WIND DIRECTION
PRES   - MEAN SEA LEVEL PRESSURE IN INCHES OF MERCURY
         F - FALLING PRESSURE   R - RISING PRESSURE
         S - STEADY PRESSURE
VSB    - VISIBILITY IN MILES
HX     - HEAT INDEX IN FAHRENHEIT
WCI    - WIND CHILL INDEX IN FAHRENHEIT
TC     - TEMPERATURE IN CELSIUS WHICH IS ALSO KNOWN AS
         TEMPERATURE IN CENTIGRADE
AFB    - AIR FORCE BASE
         LUKE AFB IS LUKE AIR FORCE BASE
         DAVIS-MONTHAN IS DAVIS-MONTHAN AIR FORCE BASE
NAS    - NAVAL AIR STATION
         EL CENTRO NAS IS EL CENTRO NAVAL AIR STATION
N/A    - NOT AVAILABLE





USA.gov is the U.S. government's official web portal to all federal, state and local government web resources and services.